Lawrence, MA

11:02 AM EDT on April 29, 2017 (GMT -0400)
Lawrence Municipal

Weather History for KLWM - February, 2013

Change the Weather History Date:

Sunday, February 24, 2013

  Actual Average Record
Temperature  
Mean Temperature 34 °F -  
Max Temperature 37 °F 39 °F 73 °F (2017)
Min Temperature 30 °F 24 °F -6 °F (1929)
Degree Days  
Heating Degree Days 32    
Moisture  
Dew Point 30 °F    
Average Humidity 88    
Maximum Humidity 93    
Minimum Humidity 81    
Precipitation  
Precipitation 0.29 in - - ()
Sea Level Pressure  
Sea Level Pressure 29.80 in    
Wind  
Wind Speed 10 mph (NNE)    
Max Wind Speed 16 mph    
Max Gust Speed 22 mph    
Visibility 2 miles    
Events Fog , Rain , Snow    
Averages and records for this station are not official NWS values.
T = Trace of Precipitation, MM = Missing Value Source: NWS Daily Summary

Daily Weather History Graph

Daily Weather History Graph

Search for Another Location

Airport or City:

Trip Planner

Search our weather history database for the weather conditions in past years. The results will help you decide how hot, cold, wet, or windy it might be!

Date:

Astronomy

Feb. 24, 2013 Rise Set
Actual Time 6:27 AM EST 5:28 PM EST
Civil Twilight 5:59 AM EST 5:56 PM EST
Nautical Twilight 5:26 AM EST 6:29 PM EST
Astronomical Twilight 4:53 AM EST 7:02 PM EST
Moon 4:36 PM EST (2/24) 5:23 AM EST (2/24)
Length of Visible Light 11h 57m
Length of Day
11h 00m
Waxing Gibbous, 99% of the Moon is Illuminated
Feb 24
Waxing Gibbous
Feb 25
Full
Mar 4
Last Quarter
Mar 11
New
Mar 19
First Quarter

Hourly Weather History & Observations

Time (EST) Temp. Windchill Dew Point Humidity Pressure Visibility Wind Dir Wind Speed Gust Speed Precip Events Conditions
12:54 AM 34.0 °F 26.6 °F 32.0 °F 92% 29.93 in 5.0 mi NE 9.2 mph - 0.00 in   Overcast
1:54 AM 35.1 °F 30.1 °F 33.1 °F 92% 29.91 in 4.0 mi NE 5.8 mph - 0.00 in   Overcast
2:54 AM 36.0 °F 29.0 °F 33.1 °F 89% 29.87 in 8.0 mi NE 9.2 mph - 0.01 in Rain Light Rain
3:54 AM 37.0 °F 30.4 °F 34.0 °F 89% 29.84 in 6.0 mi ENE 9.2 mph - 0.02 in Rain Light Rain
4:54 AM 37.0 °F 29.8 °F 34.0 °F 89% 29.83 in 10.0 mi NE 10.4 mph - 0.02 in Rain Light Rain
5:54 AM 37.0 °F 29.3 °F 34.0 °F 89% 29.83 in 7.0 mi NE 11.5 mph - 0.02 in Rain Light Rain
6:54 AM 37.0 °F 28.5 °F 34.0 °F 89% 29.81 in 3.0 mi NE 13.8 mph - 0.01 in Rain Light Rain
7:54 AM 35.6 °F 27.5 °F 33.8 °F 93% 29.81 in 4.0 mi NNE 11.5 mph - N/A Rain Light Rain
8:54 AM 36.0 °F 28.0 °F 33.1 °F 89% 29.80 in 4.0 mi NNE 11.5 mph - 0.02 in Rain Light Rain
9:32 AM 35.6 °F 28.0 °F 33.8 °F 93% 29.77 in 2.0 mi NNE 10.4 mph - 0.00 in Rain Light Rain
9:50 AM 35.6 °F 28.6 °F 32.0 °F 87% 29.77 in 2.5 mi North 9.2 mph - 0.00 in Snow Light Snow
9:54 AM 35.1 °F 26.9 °F 32.0 °F 89% 29.78 in 2.0 mi North 11.5 mph - 0.00 in Snow Light Snow
10:05 AM 33.8 °F 25.3 °F 32.0 °F 93% 29.77 in 1.5 mi NNE 11.5 mph - 0.01 in Snow Light Snow
10:54 AM 34.0 °F 26.0 °F 30.9 °F 89% 29.76 in 1.2 mi North 10.4 mph - 0.02 in Snow Light Snow
11:51 AM 33.8 °F 23.5 °F 30.2 °F 87% 29.75 in 1.8 mi NNE 16.1 mph 21.9 mph 0.01 in Snow Light Snow
11:54 AM 34.0 °F 23.8 °F 30.9 °F 89% 29.75 in 1.8 mi NNE 16.1 mph - 0.01 in Snow Light Snow
12:02 PM 33.8 °F 24.3 °F 30.2 °F 87% 29.74 in 2.5 mi NNE 13.8 mph - 0.00 in Snow Light Snow
12:17 PM 33.8 °F 24.3 °F 30.2 °F 87% 29.74 in 1.0 mi NNE 13.8 mph - 0.01 in Snow Light Snow
12:54 PM 34.0 °F 26.0 °F 30.9 °F 89% 29.75 in 1.0 mi NNE 10.4 mph - 0.03 in Snow Light Snow
1:01 PM 33.8 °F 25.8 °F 30.2 °F 87% 29.74 in 0.8 mi NNE 10.4 mph - 0.00 in Snow Light Snow
1:20 PM 33.8 °F 25.3 °F 30.2 °F 87% 29.74 in 0.5 mi NNE 11.5 mph - 0.02 in Fog , Snow Snow
1:35 PM 33.8 °F 24.8 °F 30.2 °F 87% 29.73 in 0.8 mi NNE 12.7 mph - 0.03 in Snow Light Snow
1:49 PM 33.8 °F 23.9 °F 30.2 °F 87% 29.73 in 0.8 mi NNE 15.0 mph - 0.04 in Snow Light Snow
1:54 PM 34.0 °F 25.0 °F 30.9 °F 89% 29.73 in 0.8 mi NNE 12.7 mph - 0.04 in Snow Light Snow
2:06 PM 33.8 °F 24.8 °F 30.2 °F 87% 29.72 in 0.5 mi NNE 12.7 mph - 0.01 in Fog , Snow Snow
2:16 PM 33.8 °F 23.9 °F 30.2 °F 87% 29.72 in 0.8 mi NNE 15.0 mph - 0.01 in Snow Light Snow
2:24 PM 33.8 °F 24.3 °F 30.2 °F 87% 29.72 in 1.0 mi NNE 13.8 mph - 0.01 in Snow Light Snow
2:34 PM 33.8 °F 23.5 °F 30.2 °F 87% 29.72 in 0.8 mi NNE 16.1 mph - 0.01 in Snow Light Snow
2:54 PM 34.0 °F 24.6 °F 30.0 °F 85% 29.74 in 0.8 mi NNE 13.8 mph - 0.02 in Snow Light Snow
3:02 PM 33.8 °F 24.8 °F 30.2 °F 87% 29.73 in 1.0 mi NNE 12.7 mph - 0.00 in Snow Light Snow
3:54 PM 34.0 °F 25.0 °F 30.0 °F 85% 29.76 in 1.5 mi NNE 12.7 mph - 0.00 in Snow Light Snow
4:06 PM 33.8 °F 25.8 °F 30.2 °F 87% 29.76 in 1.8 mi NNE 10.4 mph - 0.00 in Snow Light Snow
4:54 PM 33.1 °F 25.5 °F 30.0 °F 89% 29.78 in 0.8 mi North 9.2 mph - 0.01 in Snow Light Snow
5:11 PM 33.8 °F 25.8 °F 30.2 °F 87% 29.77 in 0.5 mi North 10.4 mph - 0.00 in Fog , Snow Snow
5:18 PM 33.8 °F 26.4 °F 30.2 °F 87% 29.78 in 0.5 mi NNE 9.2 mph - 0.00 in Fog , Snow Snow
5:40 PM 33.8 °F 25.8 °F 30.2 °F 87% 29.79 in 1.0 mi North 10.4 mph - 0.01 in Snow Light Snow
5:54 PM 33.1 °F 25.5 °F 30.0 °F 89% 29.80 in 1.2 mi NNE 9.2 mph - 0.02 in Snow Light Snow
6:30 PM 33.8 °F 26.4 °F 28.4 °F 81% 29.81 in 1.8 mi North 9.2 mph - 0.00 in Snow Light Snow
6:51 PM 33.8 °F 27.0 °F 28.4 °F 81% 29.82 in 2.5 mi North 8.1 mph - 0.01 in Snow Light Snow
6:54 PM 33.1 °F 24.9 °F 28.9 °F 85% 29.83 in 2.5 mi North 10.4 mph - 0.01 in Snow Light Snow
7:22 PM 33.8 °F 27.0 °F 30.2 °F 87% 29.83 in 1.5 mi North 8.1 mph - 0.00 in Snow Light Snow
7:38 PM 32.0 °F 24.8 °F 28.4 °F 87% 29.84 in 1.5 mi North 8.1 mph - 0.01 in Snow Light Snow
7:44 PM 33.8 °F 27.0 °F 28.4 °F 81% 29.84 in 2.0 mi North 8.1 mph - 0.01 in Snow Light Snow
7:54 PM 32.0 °F 24.8 °F 28.9 °F 88% 29.85 in 2.5 mi North 8.1 mph - 0.01 in Snow Light Snow
8:11 PM 32.0 °F 23.6 °F 28.4 °F 87% 29.85 in 1.8 mi North 10.4 mph - 0.00 in Snow Light Snow
8:54 PM 32.0 °F 24.8 °F 28.9 °F 88% 29.88 in 1.8 mi North 8.1 mph - 0.01 in Snow Light Snow
9:18 PM 32.0 °F 24.8 °F 28.4 °F 87% 29.88 in 2.0 mi North 8.1 mph - 0.00 in Snow Light Snow
9:44 PM 32.0 °F 24.8 °F 28.4 °F 87% 29.88 in 3.0 mi North 8.1 mph - 0.01 in Snow Light Snow
9:54 PM 32.0 °F 27.5 °F 28.9 °F 88% 29.89 in 3.0 mi North 4.6 mph - 0.01 in Snow Light Snow
10:07 PM 32.0 °F 26.4 °F 28.4 °F 87% 29.89 in 3.0 mi North 5.8 mph - 0.00 in Snow Light Snow
10:51 PM 32.0 °F 25.6 °F 28.4 °F 87% 29.89 in 5.0 mi NNW 6.9 mph - 0.00 in Snow Light Snow
10:54 PM 32.0 °F 24.8 °F 28.0 °F 85% 29.90 in 5.0 mi North 8.1 mph - 0.00 in Snow Light Snow
11:45 PM 30.2 °F 22.6 °F 28.4 °F 93% 29.91 in 2.0 mi North 8.1 mph - 0.00 in Snow Light Snow
11:54 PM 30.9 °F 23.5 °F 28.0 °F 89% 29.91 in 2.0 mi North 8.1 mph - 0.00 in Snow Light Snow